Showing default

HULIANWANG DIGUI-12, 62972

Orbit data source: Space-Track

HULIANWANG DIGUI-12, 62972 is a payload satellite owned by Zhongguo Xingwang (CN) in LEO that was launched on Tue, 11 Feb 2025 UTC via a CHANG ZHENG 8A launch vehicle from the Wenchang Satellite Launch Center (WSC). Payload-class satellites include a variety of spacecraft equipped with specific instruments for various scientific and technological missions. These include communications satellites like Starlink; space stations such as the ISS; scientific satellites like the Hubble; Earth observation satellites from companies like Planet Labs, Umbra, and HawkEye 360; GPS; miniature CubeSats for education and research; and military/defense satellites.

Loading next visibility...
Identifier
62972, 2025-030B
Orbit
LEO
Country
Flag of CNCN / PRC
Related business
Manufacturer
CAST
Mission
Operational Civil Communications
Bus & Motor
XINGWANG C, Unknown motor
Mass
~700 kg wet, ~700 kg dry
Launch date (UTC)
2025-02-11 (1 year ago)
Launch vehicle
CHANG ZHENG 8A
Launch site
Wenchang Satellite Launch Center (WSC)
Object type
Payload
Rocket body
Debris
Shape & HBR
Box + 2 Pan, 2.2 m
Radar Cross Section
5.935 m², Large (>1 m²)

Expand to show TLE details & history
Last TLE update: 10 hours ago

TLE from 10 hours ago
0 HULIANWANG DIGUI-12
1 62972U 25030B   26168.92028183 -.00000077  00000-0  10231-3 0  9997
2 62972  50.0014 233.3255 0001175 182.8097 177.2768 13.29323329 65950
Epoch: 2026-06-17T22:05Z
TLE epoch observation values (Epoch: 2026-06-17T22:05:12.350Z)
Latitude
-0.00005°
Longitude
-4.14704°
Altitude
1,150.706 km
Speed
7.278 km/s
True Right ascension
15h 33m 18s
True Declination
0° 00' 00"
Sunlit
Object was in full shadow at epoch
Visualization orbit readout
Latitude
Unknown
Longitude
Unknown
Altitude
Unknown
Speed
Unknown
Apparent Right ascension
Unknown
Apparent Declination
Unknown
Sunlit
N/A
Visualization observer readout
Local Sidereal Time
18:47:22
Azimuth
Unknown
Elevation
Unknown
Doppler factor
Unknown
Orbital elements
Apogee altitude
1,150.906 km
Perigee altitude
1,149.137 km
Semi-major axis
7,528.159 km
Eccentricity
0.00012
Inclination
50.0014°
RAAN
233.3255°
Arg. of periapsis
182.8097°
True anomaly
177.27744°
Mean anomaly
177.2768°
Eccentric anomaly
177.27712°
Mean motion
3.32284 °/min
Orbital period
108.34 mins
BSTAR
0.00010231
Loading maneuver chart data...
Computing Atmospheric mass density...
Loading historical data...
Loading historical data...
Loading historical data...
Loading historical data...
Loading historical data...
Loading historical data...
Loading historical data...

Documentation

Showing up to 5 results
|